Temperature
20 21 21 22 21 21 21 19 20 20 19 20 19 19 20 21 21 21 21 22 22 22 21 21 21 21 21 21 21 20 20 19 19 19 18 18 18 18 18 17 17 17 17 17
20 21 21 21 21 21 21 20 20 20 20 19 20 20 20 21 21 21 21 22 22 22 22 21 21 21 21 21 21 20 20 19 19 18 18 18 18 18 18 17 17 17 17 17
19 19 21 20 20 20 20 20 20 20 20 19 19 19 20 20 21 21 21 21 21 21 22 22 21 21 21 21 20 20 20 19 19 18 18 18 18 17 17 17 17 17 17 17
16 19 20 20 20 20 20 20 19 19 19 19 19 21 21 21 21 21 21 21 21 21 21 21 21 21 21 20 20 20 19 19 19 18 18 18 17 17 17 17 17 17 17 17
15 17 18 19 20 20 20 20 19 19 18 19 19 20 20 21 21 21 21 22 21 21 21 21 21 21 20 20 20 19 19 19 18 18 18 18 17 17 17 17 17 17 17 17
14 17 18 19 19 20 20 19 19 18 18 18 18 18 19 21 21 21 21 21 21 21 21 21 20 20 20 20 20 19 19 19 18 18 18 18 17 17 17 17 17 17 17 17
14 16 17 18 18 19 19 19 18 18 18 18 17 18 20 20 20 20 20 20 20 20 20 20 20 20 20 20 20 19 19 18 18 18 18 18 17 17 17 16 16 16 17 16
13 16 17 17 17 17 17 18 18 18 18 18 19 19 19 19 20 20 20 20 20 20 20 20 19 19 19 19 19 19 18 18 18 18 18 17 17 17 16 16 16 16 16 16
14 15 16 16 17 18 18 18 18 18 18 18 18 18 18 19 19 19 19 19 19 19 19 19 19 19 19 19 18 18 18 18 18 17 17 17 17 17 16 16 16 16 16 16
13 14 15 17 17 18 18 18 18 18 18 18 18 18 18 18 18 18 18 18 18 18 18 18 18 18 18 18 18 18 18 17 17 17 17 17 16 16 16 16 16 16 15 15
13 13 15 16 17 17 18 18 18 18 18 18 18 18 18 18 18 18 18 17 17 17 17 17 17 17 17 17 17 17 17 17 17 17 17 16 16 16 16 16 16 15 15 15
13 14 13 15 16 16 17 17 17 17 17 17 17 17 17 17 17 17 17 17 17 17 17 17 17 17 17 17 17 17 17 17 16 16 16 16 16 16 16 15 15 15 15 15
14 15 15 15 16 16 16 16 16 17 17 17 17 17 17 17 16 16 16 17 16 16 16 16 16 17 17 17 16 17 17 16 16 16 16 16 16 16 15 15 15 15 15 15
15 14 14 15 15 15 15 16 16 16 16 16 16 16 16 16 16 16 16 16 16 16 16 16 16 16 16 16 16 16 16 16 15 15 15 15 15 15 15 15 15 15 15 15
14 14 14 14 14 14 15 15 15 15 15 15 15 15 15 15 15 15 15 15 15 16 16 16 16 16 16 15 15 15 15 15 15 15 15 15 15 15 14 14 14 14 14 14
14 14 14 14 14 14 14 14 14 14 14 14 14 15 15 14 14 14 15 15 15 15 15 15 15 15 15 15 15 15 15 15 15 14 14 14 14 14 14 14 14 14 14 14
13 13 13 13 13 13 14 14 14 14 14 14 14 14 14 14 14 14 14 14 14 15 15 15 15 15 15 15 15 15 14 14 14 14 14 14 14 14 13 13 13 14 14 14
13 13 13 13 13 13 13 13 13 13 13 13 13 13 13 13 13 13 14 14 14 14 14 14 14 15 15 14 14 14 14 14 14 14 14 14 14 13 13 13 13 13 13 13
12 12 13 13 13 13 13 13 13 13 13 12 12 13 13 13 13 13 13 13 13 13 14 14 14 14 14 14 14 14 14 14 13 13 13 13 13 13 13 13 13 13 13 13
12 12 12 12 12 12 12 12 12 12 12 12 12 12 12 12 13 13 13 13 13 13 14 14 14 14 14 14 14 14 13 13 13 13 13 13 13 13 13 13 13 13 13 13
12 12 12 12 12 12 12 12 12 12 12 12 12 12 12 12 12 12 12 12 13 13 13 14 14 14 14 14 13 13 13 13 13 13 13 13 13 13 13 13 13 13 13 13
12 12 12 12 12 12 12 12 12 12 12 12 12 12 12 12 12 12 12 12 13 13 13 13 13 13 13 13 13 13 13 13 13 13 13 13 13 12 12 12 12 12 12 12
12 12 12 12 12 12 12 12 12 12 12 12 12 12 12 12 12 12 12 12 12 12 13 13 13 13 13 13 13 13 13 13 13 13 13 12 12 12 12 12 12 12 12 12
12 12 12 12 12 12 12 12 12 12 12 12 12 12 12 12 12 12 12 12 12 12 12 12 12 12 12 12 12 12 12 12 12 12 12 12 12 12 12 12 11 11 11 11
11 11 12 12 11 11 12 12 12 12 12 12 12 12 12 11 11 11 11 11 12 12 12 12 12 12 12 12 12 12 12 12 11 11 11 11 11 11 11 11 11 11 11 11
11 11 11 11 11 11 11 11 11 11 12 12 12 12 11 11 11 11 11 11 11 11 11 11 11 11 11 11 11 11 11 11 11 11 11 11 11 10 10 10 10 10 10 10
11 11 11 11 11 11 11 11 11 11 11 11 11 11 11 11 11 11 11 11 11 11 11 11 11 11 10 10 10 10 11 11 11 10 10 10 10 10 10 10 10 10 10 10
Wind_Speed
3 3 3 3 3 4 4 7 7 7 7 8 6 5 5 2 1 2 2 3 4 4 4 4 5 5 6 6 6 6 6 6 5 4 4 4 4 3 3 3 3 3 2 2
1 0 1 1 3 4 4 4 5 3 6 6 5 2 2 2 3 4 4 5 5 5 5 5 5 6 6 6 6 6 6 6 5 5 4 4 4 4 3 3 3 3 3 3
2 2 2 3 5 5 4 4 6 6 7 3 2 4 5 5 5 6 6 5 5 6 6 7 6 7 7 7 7 7 6 6 5 6 5 4 4 4 4 4 3 3 3 2
2 2 5 7 3 3 3 3 4 4 4 4 5 6 5 4 5 6 5 5 5 5 5 5 5 5 6 7 7 7 7 6 6 5 5 4 4 4 4 3 3 3 3 3
4 3 4 6 2 2 3 3 3 3 3 3 2 3 3 3 4 6 5 5 4 5 4 4 4 6 6 7 7 7 7 7 6 6 5 5 5 5 4 4 4 4 3 4
4 4 7 7 4 2 3 3 3 2 3 1 1 1 5 4 3 3 2 2 2 3 3 4 4 5 7 7 8 8 8 7 7 7 7 6 6 4 3 4 4 4 4 4
4 4 6 5 5 1 4 6 4 2 2 2 3 5 4 2 2 2 2 1 1 3 4 4 4 6 6 7 8 8 7 6 6 6 7 7 5 4 3 3 3 3 4 4
4 3 6 4 2 3 5 3 1 2 2 3 3 2 2 2 1 2 2 2 0 2 2 2 4 5 6 6 5 5 6 6 6 6 6 5 5 4 4 4 3 3 3 3
7 7 4 2 3 3 2 2 2 2 3 2 1 1 1 1 1 1 1 1 1 2 1 0 2 4 5 4 4 5 6 6 5 5 5 5 6 5 4 4 4 3 4 4
2 5 4 4 3 2 2 2 3 2 2 2 1 2 2 1 1 1 0 1 2 2 2 0 0 1 3 3 4 5 5 5 5 5 4 4 4 5 4 4 4 4 5 5
3 5 5 5 4 4 4 4 3 2 1 2 2 2 2 2 2 2 1 0 1 1 1 1 1 2 2 3 4 4 4 4 4 4 4 4 4 4 5 5 6 6 6 6
6 7 5 6 6 5 4 4 3 3 3 2 3 3 3 2 2 2 2 1 1 1 2 2 2 3 3 4 5 5 4 4 4 4 4 4 4 3 3 5 6 8 8 7
8 7 7 7 6 5 5 5 5 3 3 3 3 3 3 2 2 2 2 2 3 3 3 3 2 3 3 4 5 5 5 5 4 4 4 4 4 4 3 3 4 6 7 8
6 4 5 5 6 6 6 5 4 3 3 3 3 2 2 2 2 3 4 3 3 3 3 3 3 3 3 3 4 5 5 6 6 5 4 4 5 5 4 4 4 4 4 6
6 6 7 6 6 6 5 4 3 4 4 3 3 2 2 3 4 4 4 3 2 2 3 3 3 4 3 3 4 5 5 4 5 4 4 4 4 4 4 5 4 4 2 3
7 6 5 5 6 5 5 4 5 6 5 4 4 3 4 4 4 4 4 3 3 4 4 4 5 5 3 4 4 4 4 6 5 4 4 4 4 4 5 5 4 4 4 4
6 6 6 6 7 7 7 7 7 6 5 5 5 4 3 3 3 4 5 4 4 4 5 5 6 5 3 3 4 4 4 4 5 4 4 5 5 5 5 5 5 5 5 5
7 8 8 8 8 8 7 6 6 6 6 5 4 3 3 4 5 5 5 4 3 4 5 6 5 4 4 4 3 3 3 3 3 4 4 4 5 5 5 5 6 6 4 4
4 5 5 5 5 5 5 6 5 5 4 4 4 5 5 5 6 6 5 4 4 6 6 6 6 5 5 5 4 3 4 4 3 3 4 5 5 5 5 5 6 6 5 4
3 3 4 4 4 4 5 4 4 4 4 4 4 4 5 5 5 5 5 6 7 6 6 5 5 5 5 5 5 4 4 4 4 4 4 4 5 5 5 5 6 6 5 5
3 4 4 4 4 4 4 3 3 4 4 4 5 6 6 5 5 4 4 6 6 6 5 6 5 4 4 4 4 4 4 5 5 5 5 4 5 5 5 5 5 5 5 5
3 3 4 4 3 3 3 2 3 3 3 3 4 4 4 4 4 4 5 6 6 5 4 4 4 4 5 4 3 4 4 4 4 4 4 4 5 5 5 5 4 4 4 4
4 3 4 3 3 3 3 3 3 3 3 4 4 4 4 5 4 4 5 4 4 4 3 3 4 5 5 3 3 3 4 4 3 4 4 4 4 4 4 4 4 3 3 3
4 4 4 4 2 1 3 4 3 3 3 3 4 4 4 3 3 4 4 4 4 3 2 3 4 4 3 1 2 2 2 3 3 3 3 3 3 3 3 3 3 3 3 3
4 4 3 3 2 2 3 3 2 2 2 2 3 3 3 3 3 2 2 2 2 1 1 1 2 1 1 1 1 1 1 2 2 2 2 2 2 2 2 2 2 2 2 2
3 3 3 3 3 2 2 1 1 2 1 1 2 1 1 0 1 0 1 1 1 1 0 1 1 1 1 1 1 1 1 1 1 2 2 2 2 2 1 2 2 2 2 2
3 3 3 3 3 2 1 1 1 1 1 1 1 1 0 0 1 1 1 1 1 1 1 1 1 1 1 0 0 1 1 1 1 2 2 1 1 2 2 2 2 2 1 1
Wind_Direction
222 216 167 173 194 189 175 179 186 225 225 254 260 260 260 250 217 180 182 180 182 185 186 185 180 177 174 173 167 164 165 170 180 184 175 172 175 177 172 169 180 181 174 179
5 11 155 180 216 208 204 189 200 221 256 258 261 268 249 229 199 204 216 213 208 201 190 189 191 186 178 177 172 161 164 172 171 168 167 177 183 181 176 183 187 176 184 186
223 304 55 262 225 202 201 208 183 207 235 256 278 252 232 226 219 215 221 219 213 214 210 201 195 188 183 179 168 166 172 173 171 169 170 181 183 180 190 197 192 191 198 188
142 102 215 239 244 190 192 227 209 224 245 235 236 246 240 225 216 224 222 221 220 217 217 212 194 185 177 166 166 171 173 177 177 173 176 178 179 190 199 196 195 200 205 206
135 176 262 291 263 167 184 262 225 220 264 296 313 347 313 276 229 223 226 223 220 213 204 197 191 180 168 168 170 177 184 185 184 177 177 180 194 202 201 195 204 207 202 203
136 165 222 243 277 277 127 265 275 245 246 273 77 297 277 299 284 265 267 257 227 201 178 183 189 172 169 176 178 190 195 191 185 181 182 191 201 205 204 200 208 206 210 213
164 204 250 261 289 79 162 243 279 238 225 196 201 230 269 295 309 313 305 291 226 175 181 194 180 169 175 179 195 197 189 183 185 188 190 194 193 196 193 198 202 208 215 224
153 184 246 282 74 154 224 261 237 242 240 236 253 282 299 316 342 356 348 345 102 163 191 189 170 166 175 194 197 174 175 183 189 192 193 190 187 195 190 189 206 222 224 237
189 210 244 258 234 246 213 228 246 238 263 245 216 235 270 296 324 334 331 359 43 127 128 140 176 166 182 198 167 163 171 186 193 196 192 185 186 193 198 194 209 227 228 233
250 264 278 292 303 310 296 262 263 248 236 207 198 204 224 225 249 267 323 51 64 93 112 116 206 172 181 165 149 157 176 186 186 189 194 191 194 195 199 204 211 224 230 232
255 279 312 305 303 304 315 318 310 301 268 222 189 208 213 217 233 230 221 108 88 115 158 229 238 225 187 163 150 155 175 185 187 191 196 202 211 211 213 222 216 217 228 225
233 237 224 259 279 290 284 282 280 287 294 261 210 207 204 216 228 227 210 190 197 218 216 235 226 229 204 182 167 165 181 196 202 201 202 207 210 234 240 233 239 233 232 227
239 248 236 255 271 270 264 272 279 273 255 252 243 214 203 215 228 234 233 219 224 239 243 238 235 246 230 194 180 179 188 200 210 210 205 209 209 207 234 257 242 237 235 234
248 254 267 264 267 277 271 273 275 276 269 251 238 221 203 220 226 241 250 251 244 242 250 245 245 262 258 205 190 194 198 204 208 211 209 212 219 220 218 222 243 262 255 239
265 254 252 264 271 270 263 263 265 265 262 265 249 224 209 215 231 248 254 251 254 259 256 247 248 263 255 211 199 206 212 215 209 208 211 216 223 226 224 224 232 245 261 267
277 281 273 269 270 267 259 249 246 252 247 241 240 236 228 224 231 247 255 242 231 251 254 247 250 257 245 211 203 210 218 217 209 205 209 211 217 225 226 229 236 239 240 241
270 277 273 272 270 265 254 245 239 244 244 239 235 234 229 231 244 255 259 254 241 245 246 246 253 258 248 219 207 213 215 211 206 209 215 216 217 223 224 226 235 241 244 231
257 253 251 251 256 262 263 253 240 236 237 238 233 225 222 224 235 249 256 262 270 271 263 252 249 245 238 225 214 214 212 219 219 221 221 223 224 225 225 229 235 240 249 242
282 269 265 265 258 250 252 250 245 239 240 230 220 225 229 233 238 245 247 241 246 259 264 255 245 240 236 225 211 208 208 215 225 233 229 228 233 233 231 234 238 239 238 236
313 301 292 288 281 261 255 252 247 245 241 228 223 229 237 240 236 237 240 244 243 244 253 256 246 240 232 223 212 213 215 220 227 233 233 232 234 240 239 239 241 239 235 230
327 319 312 303 296 281 261 244 231 238 242 227 220 228 236 244 239 228 233 258 264 254 251 246 242 240 229 221 216 217 220 224 230 233 234 235 234 235 236 236 237 238 235 234
321 314 310 306 296 289 278 257 237 231 234 239 239 235 235 246 246 241 237 242 257 259 257 255 247 234 227 223 220 217 222 229 233 235 232 230 231 233 236 237 235 237 235 232
308 299 300 298 281 270 276 268 242 230 236 242 240 236 238 246 244 238 257 260 252 256 255 253 243 234 236 230 222 219 223 227 230 233 231 228 228 230 231 234 235 234 233 228
303 302 299 297 296 285 280 277 266 248 245 251 245 238 234 246 261 254 250 261 259 256 255 252 240 232 229 218 211 212 222 230 234 236 230 227 224 223 224 226 232 234 229 227
304 308 314 320 311 282 269 281 295 287 274 269 267 255 243 225 229 253 254 262 276 279 296 279 255 247 158 148 176 197 216 227 232 222 213 217 216 217 226 231 233 236 232 233
297 297 295 292 283 282 286 286 282 289 295 312 316 307 287 255 187 184 132 99 73 55 34 8 34 65 99 120 155 200 226 245 252 243 228 215 212 221 239 247 249 241 235 236
314 312 317 324 320 307 295 286 282 294 291 253 297 321 338 37 76 87 98 97 75 53 40 34 43 70 85 100 264 273 276 274 255 251 249 239 228 230 236 232 245 259 261 252
Height
1501 1498 1498 1499 1501 1503 1505 1510 1516 1511 1509 1499 1494 1493 1491 1491 1491 1491 1492 1493 1495 1496 1499 1501 1503 1505 1508 1510 1512 1514 1516 1517 1519 1521 1522 1523 1524 1526 1527 1527 1528 1529 1529 1530
1502 1498 1498 1500 1499 1500 1501 1503 1504 1504 1503 1492 1491 1491 1490 1490 1490 1491 1491 1492 1494 1495 1497 1498 1501 1503 1505 1507 1510 1512 1514 1516 1517 1519 1520 1521 1522 1523 1524 1525 1526 1527 1527 1528
1511 1503 1500 1508 1499 1498 1498 1496 1498 1502 1497 1490 1490 1489 1488 1488 1489 1489 1489 1491 1492 1493 1494 1496 1498 1500 1503 1505 1508 1510 1511 1513 1515 1516 1517 1518 1520 1521 1522 1523 1524 1525 1525 1526
1515 1508 1516 1503 1490 1491 1493 1492 1492 1491 1490 1489 1487 1486 1486 1486 1487 1487 1488 1489 1490 1492 1493 1494 1496 1499 1501 1503 1505 1507 1508 1510 1512 1513 1514 1516 1517 1518 1519 1521 1521 1522 1523 1524
1519 1518 1510 1498 1489 1490 1493 1494 1489 1489 1488 1488 1487 1486 1485 1485 1485 1485 1486 1487 1488 1490 1491 1492 1494 1496 1498 1500 1502 1504 1505 1507 1509 1510 1511 1513 1514 1515 1517 1518 1519 1520 1521 1521
1517 1516 1516 1499 1487 1485 1490 1496 1488 1486 1486 1487 1487 1491 1486 1484 1484 1484 1485 1485 1486 1487 1488 1490 1492 1494 1495 1497 1499 1500 1502 1504 1506 1507 1508 1510 1511 1513 1515 1516 1516 1517 1518 1519
1513 1512 1504 1490 1485 1485 1499 1496 1486 1485 1485 1485 1485 1486 1484 1483 1482 1483 1483 1484 1484 1485 1486 1487 1489 1491 1492 1494 1495 1497 1499 1501 1503 1504 1506 1507 1509 1510 1511 1512 1513 1514 1515 1515
1512 1512 1505 1487 1485 1490 1490 1485 1484 1484 1483 1483 1483 1483 1482 1481 1481 1481 1481 1481 1482 1483 1484 1485 1486 1488 1489 1491 1493 1495 1497 1498 1499 1501 1503 1504 1505 1507 1508 1509 1509 1510 1511 1511
1499 1497 1488 1485 1485 1484 1484 1483 1483 1482 1482 1481 1481 1481 1481 1480 1480 1480 1480 1480 1480 1481 1482 1484 1484 1486 1487 1489 1491 1493 1494 1495 1497 1498 1499 1501 1502 1503 1504 1505 1505 1506 1507 1507
1492 1487 1484 1483 1483 1482 1482 1482 1481 1481 1480 1480 1479 1479 1480 1480 1479 1479 1479 1479 1479 1480 1481 1482 1483 1484 1486 1487 1488 1490 1491 1493 1494 1495 1496 1497 1499 1499 1500 1500 1501 1502 1503 1503
1489 1485 1483 1481 1481 1481 1480 1480 1480 1479 1479 1479 1478 1478 1479 1478 1478 1478 1478 1478 1479 1479 1480 1481 1482 1483 1484 1485 1486 1487 1488 1489 1491 1492 1493 1494 1495 1496 1496 1497 1497 1499 1499 1500
1486 1482 1482 1480 1480 1480 1479 1478 1478 1477 1476 1477 1477 1476 1476 1476 1476 1476 1476 1477 1478 1478 1479 1479 1480 1481 1482 1483 1484 1484 1485 1486 1488 1488 1489 1491 1491 1492 1492 1493 1494 1495 1496 1496
1479 1478 1478 1476 1477 1477 1476 1475 1475 1475 1475 1474 1474 1474 1474 1474 1475 1475 1475 1475 1476 1476 1477 1477 1477 1478 1480 1480 1481 1481 1481 1483 1484 1485 1485 1486 1487 1487 1487 1489 1490 1491 1491 1491
1475 1475 1473 1472 1473 1473 1473 1472 1472 1472 1472 1472 1471 1471 1471 1472 1472 1473 1472 1472 1473 1474 1475 1475 1475 1476 1477 1477 1477 1477 1478 1479 1480 1480 1480 1481 1483 1483 1484 1484 1484 1485 1486 1487
1471 1471 1469 1468 1468 1469 1469 1469 1468 1468 1469 1469 1469 1468 1468 1469 1470 1470 1471 1471 1471 1472 1472 1472 1472 1473 1473 1473 1474 1474 1475 1475 1475 1475 1476 1477 1478 1479 1480 1480 1480 1481 1481 1482
1466 1465 1464 1463 1463 1464 1464 1464 1464 1464 1464 1464 1464 1464 1465 1466 1467 1467 1468 1468 1468 1468 1469 1469 1469 1470 1470 1470 1470 1470 1471 1471 1471 1471 1472 1472 1474 1475 1475 1476 1476 1476 1476 1477
1462 1460 1459 1459 1458 1459 1459 1459 1459 1459 1460 1460 1460 1461 1462 1463 1463 1464 1464 1464 1464 1465 1466 1466 1466 1467 1467 1467 1466 1466 1467 1467 1467 1468 1468 1468 1469 1470 1470 1471 1471 1471 1472 1473
1456 1454 1453 1454 1454 1453 1453 1454 1454 1455 1455 1456 1457 1457 1458 1458 1459 1459 1460 1460 1460 1460 1461 1462 1462 1463 1463 1463 1463 1463 1462 1463 1463 1463 1464 1464 1465 1465 1466 1466 1467 1467 1468 1468
1452 1451 1450 1450 1449 1449 1449 1449 1449 1450 1451 1452 1452 1452 1453 1454 1455 1455 1456 1456 1456 1456 1456 1457 1458 1458 1458 1459 1459 1459 1459 1459 1459 1460 1460 1460 1460 1461 1461 1462 1462 1463 1463 1463
1449 1449 1448 1447 1446 1445 1445 1445 1446 1446 1447 1448 1448 1448 1449 1450 1451 1451 1452 1451 1451 1452 1453 1453 1453 1454 1454 1454 1454 1455 1455 1455 1455 1455 1455 1455 1455 1456 1457 1457 1458 1458 1458 1458
1448 1447 1446 1444 1443 1442 1442 1442 1442 1443 1444 1445 1445 1445 1445 1446 1446 1447 1447 1446 1447 1448 1448 1448 1448 1449 1449 1450 1450 1450 1450 1450 1450 1451 1451 1451 1451 1452 1452 1453 1453 1453 1453 1453
1446 1445 1444 1443 1441 1440 1440 1440 1441 1441 1441 1441 1442 1442 1441 1441 1442 1442 1442 1443 1443 1443 1443 1443 1444 1444 1445 1445 1445 1445 1446 1446 1446 1446 1446 1447 1447 1447 1448 1448 1448 1448 1448 1449
1445 1444 1442 1441 1440 1439 1438 1439 1439 1439 1438 1438 1438 1438 1438 1438 1438 1438 1438 1438 1439 1439 1439 1439 1440 1440 1440 1441 1441 1442 1442 1442 1442 1442 1442 1442 1443 1443 1443 1443 1443 1444 1444 1444
1444 1443 1441 1439 1438 1437 1437 1437 1437 1437 1436 1436 1436 1436 1436 1435 1435 1434 1434 1435 1436 1436 1436 1436 1436 1437 1437 1437 1437 1438 1438 1438 1438 1438 1438 1438 1438 1439 1439 1439 1439 1440 1440 1440
1443 1441 1440 1438 1437 1436 1435 1435 1434 1434 1434 1434 1434 1433 1434 1433 1432 1432 1432 1433 1433 1433 1433 1433 1433 1434 1433 1433 1434 1434 1435 1435 1435 1435 1435 1435 1435 1435 1435 1436 1436 1436 1436 1436
1442 1441 1439 1438 1436 1435 1435 1434 1433 1433 1432 1431 1431 1431 1431 1431 1430 1430 1430 1431 1431 1431 1431 1431 1431 1431 1431 1431 1432 1432 1432 1432 1432 1432 1432 1432 1432 1432 1432 1432 1432 1432 1432 1433
1442 1440 1438 1437 1436 1435 1434 1433 1433 1432 1432 1431 1431 1431 1430 1430 1430 1430 1430 1430 1430 1430 1430 1430 1430 1430 1430 1430 1431 1431 1431 1431 1430 1430 1430 1430 1429 1429 1429 1429 1429 1429 1429 1429